Weather observations for the past three days for
Tampa, Vandenberg Airport
Imperial (Metric)
Date Time (edt) Wind (mph) Vis. (mi.) Weather Sky Cond. Temperature (ºF) Relative Humidity Wind Chill (°F) Heat Index (°F) Pressure Precipitation (in)
Air Dwpt 6 hour altimeter (in) sea level (mb) 1 hr 3 hr 6 hr
Max. Min.
12 09:55 Calm 10.00 Fair CLR 86 77 75% 97 30.08 0.0
12 09:35 S 3 10.00 Fair CLR 84.2 77 79% 94 30.06 0.0
12 09:15 Calm 10.00 Fair CLR 86 77 75% 97 30.06 0.0
12 08:55 Calm 10.00 Fair CLR 84.2 75.2 74% 92 30.06 0.0
12 08:35 Calm 10.00 Fair CLR 82.4 73.4 74% 88 30.05 0.0
12 08:15 Calm 10.00 Fair CLR 82.4 75.2 79% 89 30.04 0.0
12 07:55 Calm 10.00 Fair CLR 78.8 78.8 100% 83 30.04 0.0
12 07:35 Calm 10.00 Partly Cloudy SCT090 77 77 100% 78 30.04 0.0
12 07:15 Calm 10.00 Mostly Cloudy SCT080 BKN090 77 77 100% 78 30.04 0.0
12 06:55 Calm 10.00 Mostly Cloudy BKN070 BKN090 75.2 75.2 100% 73 30.03 0.0
12 06:35 Calm 10.00 Mostly Cloudy BKN080 75.2 75.2 100% 73 30.03 0.0
12 06:15 Calm 10.00 Mostly Cloudy BKN080 75.2 75.2 100% 73 30.02 0.0
12 05:55 Calm 10.00 Fair CLR 75.2 75.2 100% 73 30.02 0.0
12 05:35 Calm 7.00 Fair CLR 75.2 73.4 94% 74 30.02 0.0
12 05:15 Calm 7.00 Fair CLR 73.4 73.4 100% 30.01 0.0
12 04:55 Calm 7.00 Fair CLR 75.2 75.2 100% 73 30.01 0.0
12 04:35 Calm 10.00 Partly Cloudy SCT055 77 75.2 94% 78 30.01 0.0
12 04:15 Calm 10.00 Mostly Cloudy BKN055 77 75.2 94% 78 30.01 0.0
12 03:55 Calm 10.00 Partly Cloudy SCT055 75.2 75.2 100% 73 30.01 0.0
12 03:35 Calm 7.00 Partly Cloudy SCT050 77 75.2 94% 78 30 0.0
12 03:15 Calm 10.00 Partly Cloudy SCT050 77 77 100% 78 30 0.0
12 02:55 Calm 7.00 Fair CLR 77 77 100% 78 30 0.0
12 02:35 Calm 10.00 Fair CLR 77 77 100% 78 30 0.0
12 02:15 Calm 10.00 Fair CLR 77 77 100% 78 30.01 0.0
12 01:55 Calm 10.00 Fair CLR 77 77 100% 78 30.02 0.0
12 01:35 Calm 10.00 Fair CLR 77 77 100% 78 30.03 0.0
12 01:15 Calm 10.00 Fair CLR 77 77 100% 78 30.04 0.0
12 00:55 Calm 10.00 Fair CLR 77 77 100% 78 30.04 0.0
12 00:35 Calm 10.00 Fair CLR 77 77 100% 78 30.03 0.0
12 00:15 Calm 10.00 Fair CLR 78.8 77 94% 83 30.02 0.0
11 23:55 Calm 10.00 Fair CLR 78.8 77 94% 83 30.01 0.0
11 23:35 Calm 10.00 Fair CLR 78.8 77 94% 83 30.01 0.0
11 23:15 Calm 10.00 Fair CLR 78.8 77 94% 83 30.01 0.0
11 22:55 Calm 10.00 Fair CLR 78.8 77 94% 83 30.01 0.0
11 22:35 Calm 10.00 Partly Cloudy SCT027 80.6 77 89% 87 30 0.0
11 22:15 Calm 10.00 Partly Cloudy SCT029 SCT034 SCT047 80.6 77 89% 87 30.01 0.0
11 21:55 Calm 10.00 Mostly Cloudy SCT031 BKN047 80.6 77 89% 87 30 0.0
11 21:35 Calm 10.00 Partly Cloudy SCT025 SCT031 80.6 77 89% 87 30 0.0
11 21:15 Calm 10.00 Mostly Cloudy BKN025 BKN034 80.6 77 89% 87 30 0.0
11 20:55 Calm 10.00 Partly Cloudy SCT027 82.4 77 84% 91 30 0.0
11 20:35 Calm 10.00 Fair CLR 82.4 77 84% 91 29.99 0.0
11 20:15 Calm 10.00 Fair CLR 82.4 77 84% 91 29.99 0.0
11 19:55 W 3 10.00 Fair CLR 84.2 77 79% 94 29.98 0.0
11 19:35 SW 3 10.00 Fair CLR 84.2 77 79% 94 29.98 0.0
11 19:15 Calm 10.00 Mostly Cloudy SCT032 SCT041 BKN100 86 77 75% 97 29.97 0.0
11 18:55 W 3 10.00 Light Rain SCT034 SCT041 SCT095 86 77 75% 97 29.97 0.0
11 18:35 SW 5 10.00 Partly Cloudy SCT034 SCT045 SCT060 86 77 75% 97 29.97 0.0
11 18:15 SW 7 10.00 Partly Cloudy SCT043 SCT049 SCT060 86 77 75% 97 29.97 0.0
11 17:55 SW 5 10.00 Mostly Cloudy SCT035 SCT042 BKN120 86 77 75% 97 29.98 0.0
11 17:35 SW 5 10.00 Mostly Cloudy SCT037 BKN046 BKN110 86 77 75% 97 29.98 0.0
11 17:15 W 5 10.00 Mostly Cloudy SCT034 SCT040 BKN110 87.8 77 70% 100 29.99 0.0
11 16:55 SW 3 10.00 Partly Cloudy SCT033 SCT043 SCT120 87.8 77 70% 100 29.98 0.0
11 16:35 SW 5 10.00 Mostly Cloudy SCT031 BKN038 BKN043 87.8 77 70% 100 29.98 0.0
11 16:15 SW 5 10.00 Partly Cloudy SCT030 SCT037 SCT047 87.8 77 70% 100 29.99 0.0
11 15:55 SW 6 10.00 Partly Cloudy SCT030 SCT034 87.8 77 70% 100 29.99 0.0
11 15:35 W 6 10.00 Partly Cloudy SCT029 87.8 78.8 75% 102 30 0.0
11 15:15 SW 5 10.00 Partly Cloudy SCT025 SCT045 87.8 77 70% 100 30 0.0
11 14:55 SW 7 10.00 Mostly Cloudy BKN023 BKN028 BKN045 87.8 78.8 75% 102 30.01 0.0
11 14:35 Calm 10.00 Mostly Cloudy SCT021 BKN025 86 78.8 79% 99 30.01 0.0
11 14:15 W 3 10.00 Partly Cloudy SCT019 86 78.8 79% 99 30.01 0.0
11 13:55 W 3 10.00 Fair CLR 84.2 78.8 84% 96 30 0.0
11 13:35 Calm 10.00 Fair CLR 84.2 78.8 84% 96 30 0.0
11 12:55 Calm 10.00 Fair CLR 82.4 77 84% 91 30.01 0.0
11 12:35 Calm 10.00 Fair CLR 80.6 77 89% 87 30.02 0.0
11 12:15 Calm 10.00 Fair CLR 80.6 77 89% 87 30.03 0.0
11 11:55 Calm 10.00 Partly Cloudy SCT060 SCT070 SCT090 78.8 77 94% 83 30.04 0.0
11 11:35 S 3 10.00 Overcast SCT060 BKN085 OVC095 78.8 75.2 89% 82 30.03 0.0
11 11:15 Calm 10.00 Light Rain SCT041 SCT060 BKN095 77 73.4 89% 78 30.03 0.0
11 10:55 Calm 10.00 Light Rain SCT065 BKN090 OVC100 77 77 100% 78 30.04 0.0
11 10:35 Calm 7.00 Light Rain SCT065 OVC090 77 75.2 94% 78 30.04 0.0
11 10:15 Calm 5.00 Rain OVC110 75.2 73.4 94% 74 30.04 0.0
11 09:55 N 5 7.00 Rain SCT029 SCT060 OVC100 75.2 73.4 94% 74 30.04 0.0
11 09:35 N 5 10.00 Rain SCT023 SCT060 OVC110 75.2 73.4 94% 74 30.04 0.0
11 09:15 N 3 7.00 Rain SCT065 BKN090 OVC120 75.2 73.4 94% 74 30.04 0.0
11 08:55 N 5 7.00 Rain OVC100 75.2 73.4 94% 74 30.03 0.0
11 08:35 N 5 10.00 Rain SCT033 SCT050 OVC110 77 73.4 89% 78 30.03 0.0
11 08:15 N 7 G 16 10.00 Light Rain SCT033 SCT048 SCT065 78.8 73.4 84% 82 30.03 0.0
11 07:55 N 6 10.00 Light Rain CLR 80.6 75.2 84% 86 30.01 0.0
11 07:35 Calm 10.00 Fair CLR 80.6 73.4 79% 85 30 0.0
11 07:15 Calm 7.00 Fair CLR 80.6 73.4 79% 85 29.99 0.0
11 06:55 Calm 10.00 Fair CLR 80.6 75.2 84% 86 29.99 0.0
11 06:35 Calm 10.00 Fair CLR 80.6 73.4 79% 85 29.97 0.0
11 06:15 Calm 10.00 Fair CLR 78.8 75.2 89% 82 29.97 0.0
11 05:55 Calm 10.00 Fair CLR 78.8 77 94% 83 29.97 0.0
11 05:35 Calm 7.00 Fair CLR 77 77 100% 78 29.97 0.0
11 05:15 Calm 7.00 Fair CLR 77 77 100% 78 29.97 0.0
11 04:55 Calm 7.00 Fair CLR 77 77 100% 78 29.97 0.0
11 04:35 Calm 7.00 Fair CLR 77 77 100% 78 29.97 0.0
11 04:15 Calm 7.00 Fair CLR 78.8 77 94% 83 29.97 0.0
11 03:55 Calm 7.00 Fair CLR 77 77 100% 78 29.97 0.0
11 03:35 Calm 7.00 Fair CLR 77 77 100% 78 29.96 0.0
11 03:15 Calm 7.00 Fair CLR 77 77 100% 78 29.97 0.0
11 02:35 Calm 7.00 Fair CLR 77 77 100% 78 29.97 0.0
11 02:15 Calm 7.00 Fair CLR 77 77 100% 78 29.98 0.0
11 01:35 Calm 7.00 Fair CLR 77 77 100% 78 29.99 0.0
11 01:15 Calm 7.00 Fair CLR 77 77 100% 78 29.99 0.0
11 00:55 Calm 7.00 Fair CLR 77 77 100% 78 29.99 0.0
11 00:35 Calm 7.00 Fair CLR 77 77 100% 78 30 0.0
11 00:15 Calm 7.00 Fair CLR 77 77 100% 78 30 0.0
10 23:55 Calm 10.00 Fair CLR 77 77 100% 78 30 0.0
10 23:35 Calm 10.00 Fair CLR 78.8 77 94% 83 30 0.0
10 23:15 Calm 10.00 Fair CLR 78.8 75.2 89% 82 30 0.0
10 22:55 Calm 10.00 Fair CLR 78.8 75.2 89% 82 30 0.0
10 22:35 Calm 10.00 Fair CLR 80.6 75.2 84% 86 30.01 0.0
10 22:15 Calm 10.00 Fair CLR 78.8 77 94% 83 30 0.0
10 21:55 Calm 10.00 Fair CLR 80.6 75.2 84% 86 30 0.0
10 21:35 Calm 10.00 Fair CLR 80.6 77 89% 87 30.01 0.0
10 21:15 Calm 10.00 Fair CLR 80.6 75.2 84% 86 30.01 0.0
10 20:55 Calm 10.00 Fair CLR 82.4 75.2 79% 89 30.01 0.0
10 20:35 Calm 10.00 Fair CLR 84.2 77 79% 94 30.01 0.0
10 20:15 NW 3 7.00 Fair CLR 84.2 75.2 74% 92 30 0.0
10 19:55 Calm 7.00 Fair CLR 86 75.2 70% 95 30 0.0
10 19:35 NW 3 7.00 Fair CLR 86 75.2 70% 95 30 0.0
10 19:15 NW 6 7.00 Fair CLR 87.8 75.2 66% 98 30 0.0
10 18:55 NW 6 7.00 Fair CLR 87.8 73.4 62% 96 29.99 0.0
10 18:35 NW 5 5.00 Fair with Haze CLR 87.8 77 70% 100 29.99 0.0
10 18:15 W 6 7.00 Fair CLR 87.8 75.2 66% 98 30 0.0
10 17:55 W 6 7.00 Fair CLR 87.8 75.2 66% 98 29.99 0.0
10 17:35 W 7 7.00 Fair CLR 89.6 73.4 59% 98 29.99 0.0
10 17:15 NW 6 10.00 Fair CLR 89.6 73.4 59% 98 29.99 0.0
10 16:55 W 7 7.00 Fair CLR 89.6 73.4 59% 98 29.99 0.0
10 16:35 W 6 7.00 Fair CLR 89.6 73.4 59% 98 29.99 0.0
10 16:15 SW 3 7.00 Fair CLR 89.6 71.6 55% 96 29.99 0.0
10 15:55 W 6 7.00 Partly Cloudy SCT060 91.4 73.4 56% 100 29.99 0.0
10 15:35 W 3 7.00 Partly Cloudy SCT060 91.4 73.4 56% 100 30 0.0
10 15:15 W 6 7.00 Partly Cloudy SCT050 SCT055 91.4 75.2 59% 103 30 0.0
10 14:55 W 6 10.00 Mostly Cloudy BKN050 93.2 77 59% 107 30 0.0
10 14:35 W 3 10.00 Fair CLR 93.2 77 59% 107 30 0.0
10 14:15 W 5 7.00 Fair CLR 93.2 75.2 56% 105 30.01 0.0
10 13:55 SW 6 7.00 Fair CLR 91.4 73.4 56% 100 30.01 0.0
10 13:35 W 5 7.00 Partly Cloudy SCT050 91.4 73.4 56% 100 30.02 0.0
10 13:15 SW 5 7.00 Partly Cloudy SCT050 91.4 73.4 56% 100 30.02 0.0
10 12:55 SW 3 10.00 Partly Cloudy SCT050 91.4 75.2 59% 103 30.03 0.0
10 12:35 SW 8 7.00 Fair CLR 91.4 75.2 59% 103 30.03 0.0
10 12:15 SW 5 7.00 Partly Cloudy SCT042 SCT049 SCT055 91.4 75.2 59% 103 30.04 0.0
10 11:55 W 3 10.00 Partly Cloudy SCT040 SCT049 SCT055 89.6 77 67% 103 30.04 0.0
10 11:35 Calm 10.00 Partly Cloudy SCT040 89.6 77 67% 103 30.04 0.0
10 11:15 SW 6 7.00 Partly Cloudy SCT036 SCT042 89.6 77 67% 103 30.04 0.0
10 10:55 SW 3 7.00 Partly Cloudy SCT030 SCT035 89.6 77 67% 103 30.04 0.0
10 10:35 W 5 10.00 Partly Cloudy SCT031 87.8 77 70% 100 30.04 0.0
10 10:15 W 5 10.00 Partly Cloudy SCT025 SCT031 SCT040 87.8 78.8 75% 102 30.04 0.0
10 09:55 Calm 7.00 Mostly Cloudy SCT024 BKN029 BKN036 87.8 78.8 75% 102 30.04 0.0
10 09:35 Calm 10.00 Partly Cloudy SCT021 SCT029 86 78.8 79% 99 30.04 0.0
10 09:15 Calm 10.00 Fair CLR 86 78.8 79% 99 30.04 0.0
10 08:55 Calm 10.00 Fair CLR 84.2 78.8 84% 96 30.04 0.0
10 08:35 S 5 10.00 Fair CLR 82.4 78.8 89% 92 30.04 0.0
10 08:15 Calm 10.00 Fair CLR 80.6 80.6 100% 89 30.03 0.0
10 07:55 Calm 10.00 Fair CLR 78.8 78.8 100% 83 30.03 0.0
10 07:35 Calm 10.00 Fair CLR 78.8 77 94% 83 30.03 0.0
10 07:15 Calm 10.00 Fair CLR 78.8 77 94% 83 30.03 0.0
10 06:55 Calm 10.00 Fair CLR 77 77 100% 78 30.02 0.0
10 06:35 Calm 10.00 Fair CLR 77 77 100% 78 30.02 0.0
10 06:15 Calm 10.00 Fair CLR 77 77 100% 78 30.02 0.0
10 05:55 Calm 10.00 Fair CLR 77 77 100% 78 30.01 0.0
10 05:35 Calm 10.00 Fair CLR 77 77 100% 78 30.01 0.0
10 05:15 Calm 10.00 Fair CLR 77 77 100% 78 30.01 0.0
10 04:55 Calm 5.00 Fog/Mist CLR 77 77 100% 78 30 0.0
10 04:35 Calm 7.00 Fair CLR 77 75.2 94% 78 30 0.0
10 04:15 Calm 7.00 Fair CLR 77 77 100% 78 30 0.0
10 03:55 Calm 7.00 Fair CLR 77 77 100% 78 30 0.0
10 03:35 Calm 7.00 Fair CLR 77 77 100% 78 30 0.0
10 03:15 Calm 10.00 Fair CLR 77 77 100% 78 30 0.0
10 02:55 Calm 10.00 Fair CLR 78.8 77 94% 83 30 0.0
10 02:35 S 3 10.00 Fair CLR 78.8 77 94% 83 30.01 0.0
10 02:15 Calm 7.00 Fair CLR 78.8 77 94% 83 30.01 0.0
10 01:55 Calm 7.00 Fair CLR 78.8 77 94% 83 30.02 0.0
10 01:35 Calm 10.00 Fair CLR 78.8 78.8 100% 83 30.03 0.0
10 01:15 Calm 10.00 Fair CLR 78.8 78.8 100% 83 30.03 0.0
10 00:55 Calm 10.00 Fair CLR 78.8 78.8 100% 83 30.04 0.0
10 00:35 Calm 10.00 Fair CLR 78.8 78.8 100% 83 30.05 0.0
10 00:15 Calm 10.00 Fair CLR 78.8 78.8 100% 83 30.05 0.0
09 23:55 Calm 10.00 Fair CLR 78.8 78.8 100% 83 30.06 0.0
09 23:35 Calm 10.00 Fair CLR 78.8 78.8 100% 83 30.06 0.0
09 23:15 Calm 10.00 Partly Cloudy SCT120 78.8 78.8 100% 83 30.06 0.0
09 22:55 Calm 10.00 Partly Cloudy SCT120 78.8 78.8 100% 83 30.06 0.0
09 22:35 Calm 10.00 Partly Cloudy SCT110 78.8 78.8 100% 83 30.06 0.0
09 22:15 Calm 10.00 Fair CLR 78.8 78.8 100% 83 30.05 0.0
09 21:55 Calm 10.00 Fair CLR 78.8 78.8 100% 83 30.04 0.0
09 21:35 Calm 10.00 Fair CLR 78.8 78.8 100% 83 30.03 0.0
09 21:15 Calm 10.00 Fair CLR 78.8 78.8 100% 83 30.03 0.0
09 20:55 Calm 10.00 Fair CLR 78.8 78.8 100% 83 30.02 0.0
09 20:35 Calm 10.00 Light Rain SCT120 78.8 78.8 100% 83 30.02 0.0
09 20:15 Calm 10.00 Partly Cloudy SCT110 80.6 78.8 94% 88 30.02 0.0
09 19:55 Calm 10.00 Fair CLR 80.6 77 89% 87 30.01 0.0
09 19:35 Calm 10.00 Fair CLR 80.6 77 89% 87 30.01 0.0
09 19:15 Calm 10.00 Fair CLR 80.6 77 89% 87 30.01 0.0
09 18:55 Calm 10.00 Fair CLR 80.6 77 89% 87 30.01 0.0
09 18:35 Calm 10.00 Light Rain SCT043 SCT050 80.6 77 89% 87 30.02 0.0
09 18:15 NE 3 10.00 Light Rain SCT050 80.6 77 89% 87 30.02 0.0
09 17:55 NE 5 10.00 Fair CLR 82.4 77 84% 91 30.03 0.0
09 17:35 NE 8 10.00 Fair CLR 82.4 78.8 89% 92 30.03 0.0
09 17:15 NE 3 10.00 Fair CLR 86 78.8 79% 99 30.02 0.0
09 16:55 Calm 10.00 Light Rain CLR 86 77 75% 97 30.01 0.0
09 16:35 Calm 10.00 Fair CLR 86 77 75% 97 30.01 0.0
09 16:15 Calm 10.00 Fair CLR 86 78.8 79% 99 30.02 0.0
09 15:55 Calm 10.00 Light Rain CLR 86 78.8 79% 99 30.02 0.0
09 15:35 W 3 10.00 Fair CLR 87.8 78.8 75% 102 30.03 0.0
09 15:15 W 3 10.00 Fair CLR 87.8 77 70% 100 30.03 0.0
09 14:55 SW 5 10.00 Fair CLR 87.8 77 70% 100 30.04 0.0
09 14:35 W 5 10.00 Fair CLR 87.8 78.8 75% 102 30.05 0.0
09 14:15 W 3 10.00 Fair CLR 87.8 78.8 75% 102 30.05 0.0
09 13:55 W 6 10.00 Partly Cloudy SCT027 SCT038 87.8 78.8 75% 102 30.06 0.0
09 13:35 SW 3 10.00 Mostly Cloudy BKN029 87.8 78.8 75% 102 30.06 0.0
09 13:15 Calm 10.00 Partly Cloudy SCT029 SCT034 87.8 78.8 75% 102 30.06 0.0
09 12:55 SW 5 10.00 Partly Cloudy SCT026 SCT035 87.8 78.8 75% 102 30.07 0.0
09 12:35 SW 6 7.00 Partly Cloudy SCT026 SCT032 87.8 77 70% 100 30.07 0.0
09 12:15 SW 6 10.00 Partly Cloudy SCT026 SCT035 SCT065 87.8 78.8 75% 102 30.08 0.0
09 11:55 SW 5 10.00 Mostly Cloudy SCT024 SCT040 BKN060 87.8 78.8 75% 102 30.08 0.0
09 11:35 SW 6 10.00 Partly Cloudy SCT024 SCT120 87.8 78.8 75% 102 30.08 0.0
09 11:15 SW 5 10.00 Fair CLR 87.8 78.8 75% 102 30.08 0.0
09 10:55 Calm 10.00 Fair CLR 86 78.8 79% 99 30.07 0.0 0.01
09 10:35 Calm 10.00 Fair CLR 84.2 78.8 84% 96 30.07 0.0 0.01
09 10:15 E 3 10.00 Fair CLR 82.4 78.8 89% 92 30.08 0.0 0.01
Date Time (edt) Wind (mph) Vis. (mi.) Weather Sky Cond. Air Dwpt Max. Min. Relative Humidity Wind Chill (°F) Heat Index (°F) altimeter (in) sea level (mb) 1 hr 3 hr 6 hr
6 hour
Temperature (ºF) Pressure Precipitation (in)